Weather History for Rome, NY

Change the Weather History Date:

Monday, April 8, 2013

  Actual Average Record
Temperature  
Mean Temperature 48 °F -  
Max Temperature 57 °F 53 °F 77 °F (1981)
Min Temperature 39 °F 33 °F 20 °F (1982)
Degree Days  
Heating Degree Days 17    
Moisture  
Dew Point 34 °F    
Average Humidity 63    
Maximum Humidity 81    
Minimum Humidity 40    
Precipitation  
Precipitation 0.02 in - - ()
Sea Level Pressure  
Sea Level Pressure 30.05 in    
Wind  
Wind Speed 8 mph (NW)    
Max Wind Speed 15 mph    
Max Gust Speed -    
Visibility 10 miles    
Events Rain    
Averages and records for this station are not official NWS values.
T = Trace of Precipitation, MM = Missing Value Source: NWS Daily Summary

Daily Weather History Graph

Daily Weather History Graph

Search for Another Location

Airport:

Trip Planner

Search our weather history database for the weather conditions in past years. The results will help you decide how hot, cold, wet, or windy it might be!

Date:

Astronomy

Apr. 08, 2013 Rise Set
Actual Time 6:30 AM EDT 7:36 PM EDT
Civil Twilight 6:01 AM EDT 8:05 PM EDT
Nautical Twilight 5:26 AM EDT 8:40 PM EDT
Astronomical Twilight 4:50 AM EDT 9:17 PM EDT
Moon 5:22 AM EDT (4/8) 6:06 PM EDT (4/8)
Length of Visible Light 14h 04m
Length of Day
13h 05m
Waning Crescent, 3% of the Moon is Illuminated
Apr 8
Waning Crescent
Apr 10
New
Apr 18
First Quarter
Apr 25
Full
May 2
Last Quarter

Hourly Weather History & Observations

Time (EDT) Temp. Windchill Dew Point Humidity Pressure Visibility Wind Dir Wind Speed Gust Speed Precip Events Conditions
12:53 AM 43.0 °F 36.8 °F 34.0 °F 71% 30.03 in 10.0 mi NW 11.5 mph - N/A   Overcast
1:53 AM 42.1 °F 36.6 °F 33.1 °F 70% 30.04 in 10.0 mi WNW 9.2 mph - N/A   Overcast
2:53 AM 41.0 °F 34.7 °F 33.1 °F 73% 30.05 in 10.0 mi WNW 10.4 mph - N/A   Overcast
3:45 AM 39.9 °F 35.8 °F 33.1 °F 77% 30.05 in 10.0 mi WNW 5.8 mph - N/A   Overcast
3:53 AM 41.0 °F 36.4 °F 33.1 °F 73% 30.06 in 10.0 mi WNW 6.9 mph - N/A   Overcast
4:53 AM 39.9 °F 35.8 °F 33.1 °F 77% 30.08 in 10.0 mi WNW 5.8 mph - N/A   Overcast
5:53 AM 39.0 °F - 33.1 °F 79% 30.09 in 10.0 mi Calm Calm - N/A   Overcast
6:51 AM 39.2 °F 35.0 °F 33.8 °F 81% 30.11 in 10.0 mi West 5.8 mph - N/A   Overcast
6:53 AM 39.9 °F 35.8 °F 33.1 °F 77% 30.11 in 10.0 mi West 5.8 mph - N/A   Overcast
7:53 AM 39.9 °F 35.8 °F 33.1 °F 77% 30.13 in 10.0 mi WNW 5.8 mph - N/A   Overcast
8:53 AM 42.1 °F 38.4 °F 34.0 °F 73% 30.14 in 10.0 mi WNW 5.8 mph - N/A   Overcast
9:53 AM 44.1 °F 42.5 °F 34.0 °F 68% 30.15 in 10.0 mi Variable 3.5 mph - N/A   Overcast
10:53 AM 44.1 °F 42.5 °F 32.0 °F 63% 30.14 in 10.0 mi Variable 3.5 mph - N/A   Overcast
11:53 AM 46.0 °F 44.8 °F 33.1 °F 61% 30.14 in 10.0 mi SW 3.5 mph - N/A   Overcast
12:53 PM 48.9 °F - 33.1 °F 54% 30.12 in 10.0 mi Calm Calm - N/A   Clear
1:53 PM 51.1 °F - 33.1 °F 50% 30.10 in 10.0 mi South 5.8 mph - N/A   Clear
2:53 PM 55.0 °F - 33.1 °F 43% 30.06 in 10.0 mi East 3.5 mph - N/A   Clear
3:53 PM 57.0 °F - 33.1 °F 40% 30.03 in 10.0 mi Variable 5.8 mph - N/A   Clear
4:53 PM 57.0 °F - 34.0 °F 42% 30.01 in 10.0 mi ESE 6.9 mph - N/A   Clear
5:53 PM 57.0 °F - 34.0 °F 42% 30.00 in 10.0 mi East 9.2 mph - N/A   Clear
6:53 PM 55.9 °F - 34.0 °F 44% 29.99 in 10.0 mi East 9.2 mph - N/A   Partly Cloudy
7:53 PM 54.0 °F - 36.0 °F 51% 29.97 in 10.0 mi East 11.5 mph - 0.00 in Rain Light Rain
8:53 PM 54.0 °F - 35.1 °F 49% 29.94 in 10.0 mi East 13.8 mph - 0.00 in Rain Light Rain
9:53 PM 51.1 °F - 39.0 °F 63% 29.94 in 10.0 mi ENE 10.4 mph - 0.01 in Rain Light Rain
10:53 PM 50.0 °F - 39.9 °F 68% 29.90 in 10.0 mi East 12.7 mph - 0.01 in Rain Light Rain
11:53 PM 48.9 °F - 39.9 °F 71% 29.87 in 10.0 mi ESE 15.0 mph - 0.00 in   Overcast